Location: Dehesa de la Cepeda
(40.6574°N, 4.3013°W)
Time: 07:38:05
(UTC+00:00)

Transit 4A - All Passes

Search period start: 24 July 2021 00:00
Search period end: 03 August 2021 00:00
Orbit: 872 x 972 km, 66.8° (Epoch: 23 July)

Date Brightness Start Highest point End Pass type
(mag) Time Alt. Az. Time Alt. Az. Time Alt. Az.
24 Jul - 00:48:30 10° SSE 00:53:24 27° ESE 00:58:14 10° NE visible
24 Jul - 02:33:44 10° SW 02:39:27 47° NW 02:45:05 10° NNE visible
24 Jul - 04:26:20 10° NW 04:27:18 10° NNW 04:28:16 10° NNW visible
24 Jul - 09:50:32 10° NNW 09:55:39 31° NE 10:00:51 10° ESE daylight
24 Jul - 11:36:35 10° NW 11:42:09 46° WSW 11:47:49 10° S daylight
25 Jul - 00:57:00 10° S 01:02:31 41° ESE 01:07:57 10° NE visible
25 Jul - 02:43:37 10° WSW 02:48:54 33° NW 02:54:09 10° NNE visible
25 Jul - 09:59:34 10° NNW 10:05:09 43° NE 10:10:48 10° SE daylight
25 Jul - 11:46:15 10° NW 11:51:17 30° WSW 11:56:24 10° SSW daylight
26 Jul - 01:05:50 10° SSW 01:11:41 62° ESE 01:17:28 10° NE visible
26 Jul - 02:53:46 10° W 02:58:27 24° NW 03:03:07 10° N visible
26 Jul - 08:24:18 10° N 08:27:01 13° NE 08:29:45 10° ENE daylight
26 Jul - 10:08:43 10° NNW 10:14:33 63° ENE 10:20:28 10° SE daylight
26 Jul - 11:56:15 10° WNW 12:00:21 20° WSW 12:04:30 10° SSW daylight
26 Jul - 23:32:56 10° SE 23:35:27 13° ESE 23:37:57 10° ENE visible
27 Jul - 01:15:00 10° SSW 01:20:57 88° WNW 01:26:50 10° NNE visible
27 Jul - 03:04:17 10° W 03:08:06 17° NW 03:11:55 10° N visible
27 Jul - 08:32:49 10° N 08:36:46 18° NE 08:40:43 10° E daylight
27 Jul - 10:17:58 10° NNW 10:23:52 89° WSW 10:29:52 10° SSE daylight
27 Jul - 12:07:04 10° W 12:09:21 12° WSW 12:11:39 10° SW daylight
27 Jul - 23:40:13 10° SSE 23:44:26 21° ESE 23:48:39 10° ENE visible
28 Jul - 01:24:25 10° SW 01:30:17 61° WNW 01:36:04 10° NNE visible
28 Jul - 03:15:19 10° WNW 03:17:51 13° NW 03:20:23 10° N visible
28 Jul - 08:41:38 10° N 08:46:24 25° NE 08:51:11 10° E daylight
28 Jul - 10:27:21 10° NW 10:33:07 60° WSW 10:39:00 10° SSE daylight
28 Jul - 23:48:23 10° S 23:53:31 31° ESE 23:58:36 10° NE visible
29 Jul - 01:34:08 10° WSW 01:39:41 41° NW 01:45:12 10° NNE visible
29 Jul - 08:50:37 10° NNW 08:55:56 34° NE 09:01:20 10° ESE daylight
29 Jul - 10:36:52 10° NW 10:42:18 39° WSW 10:47:49 10° S daylight
29 Jul - 23:57:01 10° S 00:02:40 48° ESE 00:08:14 10° NE visible
30 Jul - 01:44:05 10° WSW 01:49:10 29° NW 01:54:15 10° N visible
30 Jul - 07:16:09 10° NNE 07:17:35 11° NNE 07:19:00 10° NE daylight
30 Jul - 08:59:42 10° NNW 09:05:23 49° NE 09:11:10 10° SE daylight
30 Jul - 10:46:38 10° NW 10:51:25 26° WSW 10:56:15 10° SSW daylight
31 Jul - 00:05:58 10° SSW 00:11:51 72° ESE 00:17:41 10° NNE visible
31 Jul - 01:54:22 10° W 01:58:46 21° NW 02:03:09 10° N visible
31 Jul - 07:24:09 10° N 07:27:22 15° NE 07:30:38 10° ENE daylight
31 Jul - 09:08:53 10° NNW 09:14:46 72° ENE 09:20:44 10° SE daylight
31 Jul - 10:56:48 10° WNW 11:00:27 17° WSW 11:04:08 10° SW daylight
31 Jul - 22:32:15 10° SE 22:35:32 15° ESE 22:38:47 10° ENE visible
01 Aug - 00:15:13 10° SSW 00:21:09 78° WNW 00:27:00 10° NNE visible
01 Aug - 02:05:02 10° WNW 02:08:27 16° NW 02:11:52 10° N visible
01 Aug - 07:32:48 10° N 07:37:05 20° NE 07:41:23 10° E daylight
01 Aug - 09:18:11 10° NNW 09:24:03 78° WSW 09:30:03 10° SSE daylight
01 Aug - 11:08:52 10° W 11:09:25 10° W 11:10:00 10° WSW daylight
01 Aug - 22:39:57 10° SSE 22:44:34 24° ESE 22:49:06 10° NE visible
02 Aug - 00:24:44 10° SW 00:30:30 53° NW 00:36:13 10° NNE visible
02 Aug - 02:16:25 10° NW 02:18:14 11° NW 02:20:03 10° NNW visible
02 Aug - 07:41:42 10° N 07:46:42 28° NE 07:51:44 10° ESE daylight
02 Aug - 09:27:35 10° NW 09:33:17 52° WSW 09:39:04 10° S daylight
02 Aug - 22:48:18 10° S 22:53:39 36° ESE 22:58:56 10° NE visible
